FW7086 Weather Reports


Display with metric or nautical units.
time (UTC)temp
F
wind
direction
speed
MPH
gust
MPH
rain 1hr
in
rain 24hr
in
rain mn
in
humidity
%
barometer
mb
20260507024119 47 338 1.0 2.0 0.00 0.00 0.00 45 1017.2
20260507023614 47 353 1.0 2.0 0.00 0.00 0.00 45 1017.1
20260507023112 47 291 2.0 4.0 0.00 0.00 0.00 45 1017.0
20260507022609 48 268 0.0 1.0 0.00 0.00 0.00 45 1016.9
20260507022104 48 234 1.0 1.0 0.00 0.00 0.00 45 1016.8
20260507021600 48 318 2.0 4.0 0.00 0.00 0.00 44 1016.5
20260507021056 48 95 2.0 2.0 0.00 0.00 0.00 44 1016.5
20260507020555 48 77 3.0 6.0 0.00 0.00 0.00 44 1016.5
20260507020051 48 305 3.0 3.0 0.00 0.00 0.00 43 1016.4
20260507015549 48 297 4.0 4.0 0.00 0.00 0.00 42 1016.5
20260507015046 48 332 3.0 3.0 0.00 0.00 0.00 44 1016.3
20260507014543 48 301 4.0 6.0 0.00 0.00 0.00 43 1016.3
20260507014039 48 43 1.0 1.0 0.00 0.00 0.00 44 1016.3
20260507013536 49 37 3.0 3.0 0.00 0.00 0.00 43 1016.2
20260507013033 49 303 2.0 2.0 0.00 0.00 0.00 44 1016.2
20260507012530 49 297 1.0 1.0 0.00 0.00 0.00 44 1016.2
20260507012026 49 304 1.0 1.0 0.00 0.00 0.00 44 1016.3
20260507011524 49 306 2.0 2.0 0.00 0.00 0.00 43 1016.3
20260507011019 50 288 2.0 3.0 0.00 0.00 0.00 43 1016.3
20260507010514 50 305 1.0 2.0 0.00 0.00 0.00 43 1016.1
20260507010011 50 271 2.0 2.0 0.00 0.00 0.00 42 1016.0
20260507005508 50 232 2.0 2.0 0.00 0.00 0.00 42 1016.0
20260507005005 50 267 4.0 6.0 0.00 0.00 0.00 41 1016.0
20260507004502 51 344 4.0 7.0 0.00 0.00 0.00 41 1016.1
20260507003959 51 224 2.0 2.0 0.00 0.00 0.00 42 1015.7
20260507003454 51 233 3.0 4.0 0.00 0.00 0.00 41 1016.0
20260507002949 51 293 5.0 8.0 0.00 0.00 0.00 41 1015.9
20260507002446 51 277 4.0 4.0 0.00 0.00 0.00 41 1015.9
20260507001943 52 192 7.0 11.0 0.00 0.00 0.00 41 1015.7
20260507001439 52 331 2.0 2.0 0.00 0.00 0.00 40 1015.7
20260507000937 52 314 3.0 4.0 0.00 0.00 0.00 40 1015.7
20260507000435 53 320 4.0 7.0 0.00 0.00 0.00 39 1015.4
20260506235928 53 261 5.0 8.0 0.00 0.00 0.00 39 1015.5
20260506235426 53 293 5.0 7.0 0.00 0.00 0.00 40 1015.3
20260506234921 53 240 4.0 7.0 0.00 0.00 0.00 40 1015.3
20260506234419 53 356 6.0 9.0 0.00 0.00 0.00 39 1015.4
20260506233917 53 13 2.0 3.0 0.00 0.00 0.00 39 1015.3
20260506233413 53 278 6.0 9.0 0.00 0.00 0.00 40 1015.2
20260506232910 53 275 2.0 3.0 0.00 0.00 0.00 40 1015.1
20260506232406 54 323 1.0 2.0 0.00 0.00 0.00 40 1015.3
20260506231902 54 272 2.0 3.0 0.00 0.00 0.00 39 1015.1
20260506231400 54 347 6.0 7.0 0.00 0.00 0.00 39 1015.0
20260506230857 55 343 2.0 3.0 0.00 0.00 0.00 38 1015.1
20260506230353 54 315 3.0 4.0 0.00 0.00 0.00 39 1015.2
20260506225849 55 276 3.0 4.0 0.00 0.00 0.00 39 1014.8
20260506225347 55 294 2.0 3.0 0.00 0.00 0.00 38 1015.0
20260506224844 55 320 1.0 2.0 0.00 0.00 0.00 39 1014.9
20260506224341 54 340 2.0 3.0 0.00 0.00 0.00 39 1014.8
20260506223838 55 258 7.0 13.0 0.00 0.00 0.00 38 1015.1
20260506223333 55 318 4.0 4.0 0.00 0.00 0.00 38 1014.8
20260506222830 55 268 2.0 2.0 0.00 0.00 0.00 39 1015.1
20260506222326 55 8 1.0 2.0 0.00 0.00 0.00 39 1014.9
20260506221824 55 254 7.0 14.0 0.00 0.00 0.00 38 1014.8
20260506221321 55 278 5.0 7.0 0.00 0.00 0.00 38 1014.6
20260506220819 55 206 2.0 3.0 0.00 0.00 0.00 39 1014.7
20260506220319 55 19 2.0 2.0 0.00 0.00 0.00 38 1014.6
20260506215816 56 238 3.0 4.0 0.00 0.00 0.00 38 1014.6
20260506215312 58 235 4.0 6.0 0.00 0.00 0.00 36 1014.5
20260506214808 57 189 5.0 7.0 0.00 0.00 0.00 36 1014.6
20260506214305 56 285 2.0 3.0 0.00 0.00 0.00 37 1014.5
20260506213803 57 37 3.0 4.0 0.00 0.00 0.00 37 1014.4
20260506213300 56 272 3.0 4.0 0.00 0.00 0.00 38 1014.5
20260506212757 56 6 2.0 3.0 0.00 0.00 0.00 39 1014.7
20260506212253 58 158 2.0 3.0 0.00 0.00 0.00 38 1014.4
20260506211748 57 284 2.0 4.0 0.00 0.00 0.00 38 1014.3
20260506211245 57 340 8.0 13.0 0.00 0.00 0.00 37 1014.7
20260506210742 58 273 2.0 3.0 0.00 0.00 0.00 36 1014.4
20260506210239 60 97 2.0 3.0 0.00 0.00 0.00 34 1014.4
20260506205736 58 272 1.0 2.0 0.00 0.00 0.00 34 1014.2
20260506205231 58 178 4.0 6.0 0.00 0.00 0.00 33 1014.4
20260506204728 58 226 3.0 4.0 0.00 0.00 0.00 32 1014.4
20260506204225 59 326 8.0 13.0 0.00 0.00 0.00 32 1014.5
20260506203724 59 267 2.0 2.0 0.00 0.00 0.00 33 1014.3
20260506203221 58 252 3.0 3.0 0.00 0.00 0.00 33 1014.5
20260506202719 58 252 2.0 3.0 0.00 0.00 0.00 33 1014.6
20260506202215 58 139 1.0 2.0 0.00 0.00 0.00 34 1014.6
20260506201712 58 206 7.0 9.0 0.00 0.00 0.00 32 1014.6
20260506201209 58 222 3.0 3.0 0.00 0.00 0.00 33 1014.7
20260506200706 56 138 1.0 1.0 0.00 0.00 0.00 35 1014.8
20260506200203 56 235 2.0 3.0 0.00 0.00 0.00 34 1014.9
20260506195659 58 125 3.0 6.0 0.00 0.00 0.00 33 1015.0
20260506195155 58 238 3.0 3.0 0.00 0.00 0.00 35 1014.9
20260506194652 56 344 2.0 3.0 0.00 0.00 0.00 36 1015.0
20260506194148 57 307 2.0 4.0 0.00 0.00 0.00 36 1015.1
20260506193646 57 14 5.0 7.0 0.00 0.00 0.00 36 1015.2
20260506193143 56 254 3.0 6.0 0.00 0.00 0.00 37 1015.1
20260506192640 56 250 7.0 9.0 0.00 0.00 0.00 37 1015.1
20260506192136 56 16 1.0 2.0 0.00 0.00 0.00 37 1015.2
20260506191633 56 295 2.0 2.0 0.00 0.00 0.00 36 1015.0
20260506191129 56 357 1.0 2.0 0.00 0.00 0.00 37 1015.0
20260506190626 56 167 2.0 3.0 0.00 0.00 0.00 36 1015.2
20260506190123 56 299 2.0 4.0 0.00 0.00 0.00 36 1015.3
20260506185620 57 29 2.0 3.0 0.00 0.00 0.00 37 1015.2
20260506185116 58 222 2.0 3.0 0.00 0.00 0.00 36 1015.2
20260506184614 56 225 2.0 3.0 0.00 0.00 0.00 37 1015.2
20260506184111 55 296 5.0 7.0 0.00 0.00 0.00 37 1015.3
20260506183608 55 280 3.0 4.0 0.00 0.00 0.00 38 1015.2
20260506183103 56 311 3.0 3.0 0.00 0.00 0.00 38 1015.2
20260506182601 56 172 4.0 6.0 0.00 0.00 0.00 37 1015.1
20260506182058 55 276 2.0 3.0 0.00 0.00 0.00 37 1015.1
20260506181556 55 175 4.0 6.0 0.00 0.00 0.00 38 1015.1
20260506181053 55 227 3.0 3.0 0.00 0.00 0.00 37 1015.1
20260506180549 56 264 4.0 4.0 0.00 0.00 0.00 37 1015.0
20260506180046 56 270 2.0 3.0 0.00 0.00 0.00 37 1015.1
20260506175542 56 253 4.0 4.0 0.00 0.00 0.00 36 1015.2
20260506175039 56 160 1.0 1.0 0.00 0.00 0.00 37 1015.4
20260506174538 56 297 6.0 10.0 0.00 0.00 0.00 36 1015.3
20260506174033 55 312 4.0 8.0 0.00 0.00 0.00 37 1015.2
20260506173531 56 189 2.0 2.0 0.00 0.00 0.00 37 1015.2
20260506173028 55 335 5.0 6.0 0.00 0.00 0.00 36 1015.3
20260506172526 56 198 4.0 6.0 0.00 0.00 0.00 36 1015.3
20260506172021 56 169 3.0 6.0 0.00 0.00 0.00 38 1015.5
20260506171519 55 218 1.0 2.0 0.00 0.00 0.00 38 1015.4
20260506171017 55 25 4.0 6.0 0.00 0.00 0.00 36 1015.5
20260506170514 56 306 4.0 4.0 0.00 0.00 0.00 36 1015.5
20260506170012 55 270 4.0 4.0 0.00 0.00 0.00 36 1015.8
20260506165510 55 314 3.0 4.0 0.00 0.00 0.00 38 1015.5
20260506165005 57 227 4.0 9.0 0.00 0.00 0.00 36 1015.6
20260506164502 55 350 2.0 2.0 0.00 0.00 0.00 39 1015.6
20260506164000 55 66 2.0 2.0 0.00 0.00 0.00 38 1015.4
20260506163455 56 158 2.0 3.0 0.00 0.00 0.00 37 1015.5
20260506162950 55 359 1.0 1.0 0.00 0.00 0.00 37 1015.5
20260506162448 56 207 2.0 3.0 0.00 0.00 0.00 35 1015.3
20260506161945 56 294 2.0 3.0 0.00 0.00 0.00 36 1015.5
20260506161443 55 178 4.0 6.0 0.00 0.00 0.00 36 1015.4
20260506160940 55 290 2.0 2.0 0.00 0.00 0.00 35 1015.3
20260506160437 55 289 6.0 9.0 0.00 0.00 0.00 35 1015.5
20260506155935 54 286 3.0 4.0 0.00 0.00 0.00 37 1015.4
20260506155432 55 274 5.0 7.0 0.00 0.00 0.00 37 1015.3
20260506153554 53 223 2.0 2.0 0.00 0.00 0.00 37 1015.5
20260506153051 53 180 2.0 3.0 0.00 0.00 0.00 36 1015.6
20260506152548 54 269 1.0 2.0 0.00 0.00 0.00 36 1015.5
20260506152046 54 250 3.0 4.0 0.00 0.00 0.00 37 1015.4
20260506151544 55 5 2.0 3.0 0.00 0.00 0.00 36 1015.5
20260506151041 54 149 2.0 3.0 0.00 0.00 0.00 36 1015.6
20260506150537 54 75 2.0 3.0 0.00 0.00 0.00 36 1015.6
20260506150034 54 315 2.0 3.0 0.00 0.00 0.00 36 1015.4
20260506145531 54 234 2.0 3.0 0.00 0.00 0.00 37 1015.4
20260506145028 54 122 1.0 1.0 0.00 0.00 0.00 36 1015.5
20260506144525 53 20 3.0 3.0 0.00 0.00 0.00 37 1015.7
20260506144022 54 292 4.0 7.0 0.00 0.00 0.00 37 1015.7
20260506143520 54 283 1.0 1.0 0.00 0.00 0.00 38 1015.5
20260506143018 53 310 1.0 2.0 0.00 0.00 0.00 39 1015.7
20260506142515 54 303 2.0 3.0 0.00 0.00 0.00 37 1015.6
20260506142013 53 305 1.0 2.0 0.00 0.00 0.00 41 1015.5
20260506141511 53 310 2.0 3.0 0.00 0.00 0.00 40 1015.6
20260506141009 53 299 1.0 2.0 0.00 0.00 0.00 40 1015.4
20260506140506 53 233 1.0 1.0 0.00 0.00 0.00 40 1015.5
20260506140003 52 341 1.0 1.0 0.00 0.00 0.00 43 1015.4
20260506135500 53 194 0.0 2.0 0.00 0.00 0.00 41 1015.3
20260506134956 53 350 0.0 0.0 0.00 0.00 0.00 40 1015.4
20260506134452 53 272 0.0 1.0 0.00 0.00 0.00 44 1015.1
20260506133949 53 22 1.0 1.0 0.00 0.00 0.00 42 1015.1
20260506133446 52 0 0.0 0.0 0.00 0.00 0.00 46 1015.0
20260506132943 51 198 1.0 1.0 0.00 0.00 0.00 45 1014.9
20260506132440 51 165 0.0 1.0 0.00 0.00 0.00 45 1014.9
20260506131937 50 333 0.0 0.0 0.00 0.00 0.00 48 1014.9
20260506131434 50 173 2.0 2.0 0.00 0.00 0.00 49 1014.9
20260506130931 50 156 1.0 2.0 0.00 0.00 0.00 50 1015.0
20260506130427 50 25 0.0 0.0 0.00 0.00 0.00 51 1014.8
20260506125925 50 9 0.0 0.0 0.00 0.00 0.00 53 1014.8
20260506125423 49 19 0.0 0.0 0.00 0.00 0.00 53 1014.9
20260506124921 50 5 0.0 0.0 0.00 0.00 0.00 52 1014.6
20260506124418 50 26 0.0 0.0 0.00 0.00 0.00 53 1014.8
20260506123916 48 2 0.0 0.0 0.00 0.00 0.00 58 1014.5
20260506123414 48 350 0.0 0.0 0.00 0.00 0.00 62 1014.6
20260506122911 48 344 0.0 0.0 0.00 0.00 0.00 61 1014.5
20260506122408 48 9 0.0 0.0 0.00 0.00 0.00 61 1014.5
20260506121906 47 16 0.0 0.0 0.00 0.00 0.00 62 1014.3
20260506121403 47 204 0.0 0.0 0.00 0.00 0.00 64 1014.4
20260506120900 47 204 0.0 0.0 0.00 0.00 0.00 65 1014.3
20260506120357 46 331 0.0 0.0 0.00 0.00 0.00 66 1014.3
20260506115855 45 5 0.0 0.0 0.00 0.00 0.00 68 1014.4
20260506115353 45 8 0.0 0.0 0.00 0.00 0.00 69 1014.3
20260506114850 45 359 0.0 0.0 0.00 0.00 0.00 69 1014.4
20260506114348 44 359 0.0 0.0 0.00 0.00 0.00 69 1014.1
20260506113847 44 359 0.0 0.0 0.00 0.00 0.00 70 1014.1
20260506113343 43 359 0.0 0.0 0.00 0.00 0.00 71 1014.2
20260506112840 43 357 0.0 0.0 0.00 0.00 0.00 74 1014.1
20260506112337 42 357 0.0 0.0 0.00 0.00 0.00 75 1014.1
20260506111834 41 347 0.0 0.0 0.00 0.00 0.00 76 1014.2
20260506111333 41 347 0.0 0.0 0.00 0.00 0.00 75 1014.0
20260506110830 40 347 0.0 0.0 0.00 0.00 0.00 76 1014.0
20260506110327 40 347 0.0 0.0 0.00 0.00 0.00 76 1014.0
20260506105824 40 347 0.0 0.0 0.00 0.00 0.00 76 1013.9
20260506105320 39 347 0.0 0.0 0.00 0.00 0.00 76 1013.7
20260506104818 39 347 0.0 0.0 0.00 0.00 0.00 75 1013.8
20260506104315 40 347 0.0 0.0 0.00 0.00 0.00 74 1013.4
20260506103813 40 347 0.0 0.0 0.00 0.00 0.00 74 1013.3
20260506103310 40 347 0.0 0.0 0.00 0.00 0.00 74 1013.2
20260506102808 40 347 0.0 0.0 0.00 0.00 0.00 73 1013.2
20260506102306 41 346 0.0 0.0 0.00 0.00 0.00 72 1013.3
20260506101803 41 347 0.0 0.0 0.00 0.00 0.00 72 1013.0
20260506101258 41 347 0.0 0.0 0.00 0.00 0.00 71 1013.1
20260506100757 41 347 0.0 0.0 0.00 0.00 0.00 69 1013.1
20260506100254 42 347 0.0 0.0 0.00 0.00 0.00 69 1013.1
20260506095753 42 347 0.0 0.0 0.00 0.00 0.00 68 1013.2
20260506095249 41 352 0.0 0.0 0.00 0.00 0.00 68 1013.2
20260506094746 42 352 0.0 0.0 0.00 0.00 0.00 68 1012.9
20260506094244 42 352 0.0 0.0 0.00 0.00 0.00 66 1013.2
20260506093743 42 346 0.0 0.0 0.00 0.00 0.00 66 1013.1
20260506093239 42 347 0.0 0.0 0.00 0.00 0.00 66 1013.2
20260506092737 42 351 0.0 0.0 0.00 0.00 0.00 68 1013.2
20260506092235 42 354 0.0 0.0 0.00 0.00 0.00 68 1012.9
20260506091732 42 355 0.0 0.0 0.00 0.00 0.00 68 1013.0
20260506091229 42 351 0.0 0.0 0.00 0.00 0.00 68 1013.3
20260506090727 42 351 0.0 0.0 0.00 0.00 0.00 68 1013.1
20260506090224 42 341 0.0 0.0 0.00 0.00 0.00 66 1013.4
20260506085721 42 341 0.0 0.0 0.00 0.00 0.00 66 1013.5
20260506085217 42 334 0.0 0.0 0.00 0.00 0.00 66 1013.1
20260506084714 42 352 0.0 0.0 0.00 0.00 0.00 66 1013.0
20260506084210 42 353 0.0 0.0 0.00 0.00 0.00 65 1012.8
20260506083707 43 353 0.0 0.0 0.00 0.00 0.00 64 1012.7
20260506083205 43 346 0.0 0.0 0.00 0.00 0.00 64 1012.9
20260506082702 43 0 0.0 0.0 0.00 0.00 0.00 63 1012.8
20260506082202 43 7 0.0 0.0 0.00 0.00 0.00 62 1012.9
20260506081700 44 5 0.0 0.0 0.00 0.00 0.00 61 1013.0
20260506081158 44 356 0.0 0.0 0.00 0.00 0.00 60 1012.8
20260506080655 44 352 0.0 0.0 0.00 0.00 0.00 59 1012.9
20260506080152 45 10 0.0 0.0 0.00 0.00 0.00 58 1012.8
20260506073135 46 12 0.0 0.0 0.00 0.00 0.00 55 1012.3
20260506072632 46 355 0.0 0.0 0.00 0.00 0.00 54 1012.7
20260506072130 46 15 1.0 2.0 0.00 0.00 0.00 53 1012.5
20260506071627 46 7 2.0 2.0 0.00 0.00 0.00 54 1012.5
20260506071125 47 7 2.0 3.0 0.00 0.00 0.00 55 1012.4
20260506070622 47 5 1.0 1.0 0.00 0.00 0.00 53 1012.5
20260506070119 47 10 2.0 2.0 0.00 0.00 0.00 53 1012.3
20260506062056 48 19 0.0 0.0 0.00 0.00 0.00 52 1012.5
20260506061552 48 44 1.0 2.0 0.00 0.00 0.00 51 1012.4
20260506061050 49 12 2.0 2.0 0.00 0.00 0.00 50 1012.7
20260506060548 49 16 1.0 1.0 0.00 0.00 0.00 49 1012.5
20260506051017 51 20 2.0 2.0 0.00 0.00 0.00 44 1011.9
20260506050514 51 358 2.0 2.0 0.00 0.00 0.00 43 1011.8
20260506045005 52 2 1.0 2.0 0.00 0.09 0.09 43 1011.8
20260506044503 52 6 4.0 6.0 0.00 0.09 0.09 42 1011.9
20260506044000 52 34 4.0 7.0 0.00 0.09 0.09 42 1011.8
20260506043457 53 38 3.0 6.0 0.00 0.09 0.09 41 1012.0
20260506042955 53 285 3.0 3.0 0.00 0.09 0.09 41 1012.0
20260506042454 53 337 4.0 6.0 0.00 0.09 0.09 41 1012.0
20260506041951 53 340 2.0 3.0 0.00 0.09 0.09 41 1012.0
20260506041449 53 327 0.0 0.0 0.00 0.09 0.09 41 1012.1
20260506040946 53 323 1.0 2.0 0.00 0.09 0.09 40 1012.1
20260506040444 53 346 2.0 3.0 0.00 0.09 0.09 41 1012.0
20260506035940 53 324 3.0 3.0 0.00 0.09 0.09 40 1012.1
20260506035437 53 329 3.0 4.0 0.00 0.09 0.09 40 1011.7
20260506034933 54 2 3.0 4.0 0.00 0.09 0.09 40 1011.7
20260506034431 54 335 4.0 4.0 0.00 0.09 0.09 39 1011.9
20260506033928 54 315 1.0 1.0 0.00 0.09 0.09 41 1011.7
20260506033425 53 333 2.0 4.0 0.00 0.09 0.09 41 1011.8
20260506032922 54 1 0.0 0.0 0.00 0.09 0.09 41 1011.6
20260506032419 53 359 0.0 1.0 0.00 0.09 0.09 41 1011.4
20260506031916 53 34 1.0 1.0 0.00 0.09 0.09 40 1011.4
20260506031413 54 16 1.0 1.0 0.00 0.09 0.09 40 1011.4
20260506030911 54 344 1.0 1.0 0.00 0.09 0.09 41 1011.5
20260506030408 54 342 1.0 1.0 0.00 0.09 0.09 41 1011.4
20260506025905 54 280 1.0 1.0 0.00 0.09 0.09 40 1011.3
20260506025402 53 39 2.0 2.0 0.00 0.09 0.09 41 1011.5
20260506024859 53 322 1.0 1.0 0.00 0.09 0.09 41 1011.5
20260506024356 54 276 1.0 1.0 0.00 0.09 0.09 41 1011.5